DateTimeUTC,F1_A11,F1_S11,BsB_S11,BsG_S11,BsR_S11,BbsB_S11,BbsG_S11,BbsR_S11,BaB_A11,BaG_A11,BaR_A11,Tu_S11,T_S11,Uu_S11,U_S11,P_S11,T1_A11
2021-05-27T03:00:00Z,00000200,20000000,,,,,,,0000.16,0000.03,0000.67,17.7,24.4,11.2,07.4,0679.0,30.9
2021-05-27T03:01:00Z,00000200,20000000,,,,,,,-000.20,-000.22,-000.22,17.7,24.4,11.2,07.4,0679.0,30.9
2021-05-27T03:02:00Z,00000200,20000000,,,,,,,0000.01,0000.12,-000.45,17.7,24.4,11.1,07.3,0679.0,30.9
2021-05-27T03:03:00Z,00000200,60000000,,,,,,,0000.18,0000.18,0000.62,17.7,24.4,10.9,07.2,0679.0,30.9
2021-05-27T03:04:00Z,00000200,40000000,0000.20,0000.38,-000.18,-000.32,0000.03,-000.28,-000.20,-000.06,-000.25,17.8,24.2,10.8,07.3,0679.9,30.9
2021-05-27T03:05:00Z,00000200,00000000,-000.08,0000.48,0000.28,-000.40,0000.26,-000.34,0000.12,-000.18,0000.18,17.9,24.2,10.8,07.3,0680.0,30.9
2021-05-27T03:06:00Z,00000200,00000000,-000.17,0000.00,0000.24,-000.94,0000.07,-000.29,0000.07,0000.06,-000.37,17.9,24.2,10.8,07.3,0680.0,30.9
2021-05-27T03:07:00Z,00000200,00000000,-000.02,0000.28,0000.04,-000.14,0000.13,-000.14,-000.14,-000.17,0000.19,17.9,24.1,10.8,07.3,0680.0,30.9
2021-05-27T03:08:00Z,00000200,00000000,0000.91,0000.21,0000.07,-000.44,-000.09,0000.21,-000.38,0000.07,-000.15,17.9,24.1,10.7,07.3,0680.0,30.9
2021-05-27T03:09:00Z,00000200,00000000,-000.11,0000.25,-000.18,-000.15,-000.04,-000.10,0000.14,-000.50,-000.43,17.9,24.1,10.6,07.2,0680.0,30.9
2021-05-27T03:10:00Z,00000200,00000000,0000.70,0000.02,0000.13,-000.05,-000.06,-000.30,0000.21,0000.20,0000.38,17.9,24.1,10.6,07.2,0679.9,30.9
2021-05-27T03:11:00Z,00000200,00000000,-000.52,0000.27,0000.36,-000.09,0000.06,0000.16,-000.25,-000.04,0000.10,17.8,24.1,10.6,07.2,0679.9,30.9
2021-05-27T03:12:00Z,00000200,00000000,0000.54,0000.43,0000.35,0000.21,0000.15,-000.05,-000.31,-000.04,-000.33,17.8,24.1,10.6,07.2,0679.9,30.9
2021-05-27T03:13:00Z,00000200,00000000,0000.03,-000.00,0000.21,0000.26,-000.03,0000.07,0000.08,-000.23,-000.13,17.9,24.1,10.5,07.1,0679.9,30.9
2021-05-27T03:14:00Z,00000200,00000000,0000.22,-000.14,0000.21,0000.54,0000.03,-000.10,0000.09,0000.16,0000.02,17.8,24.1,10.4,07.1,0679.9,30.9
2021-05-27T03:15:00Z,00000200,00000000,0000.29,0000.33,0000.20,0000.02,0000.11,-000.14,-000.84,-000.50,-000.24,17.8,24.1,10.3,07.0,0679.9,30.9
2021-05-27T03:16:00Z,00000200,00000000,0000.17,0000.09,0000.15,-000.34,-000.04,-000.01,0000.79,0000.54,0000.19,17.8,24.1,10.3,07.0,0679.9,30.9
2021-05-27T03:17:00Z,00000200,00000000,0000.35,0000.22,0000.06,-000.38,0000.22,-000.26,-000.12,-000.10,-000.20,17.8,24.1,10.2,07.0,0679.9,30.9
2021-05-27T03:18:00Z,00000200,00000000,0000.26,0000.50,0000.38,-000.60,-000.02,0000.00,0000.05,-000.50,0000.18,17.8,24.1,10.2,07.0,0679.9,30.9
2021-05-27T03:19:00Z,00000200,00000000,0000.31,0000.19,0000.43,-000.76,-000.09,0000.15,-000.42,0000.17,-000.42,17.8,24.1,10.1,06.9,0679.9,30.9
2021-05-27T03:20:00Z,00000200,00000000,0000.79,0000.11,0000.10,0000.11,-000.10,-000.13,0000.34,0000.26,0000.12,17.8,24.1,10.1,06.9,0679.8,30.9
2021-05-27T03:21:00Z,00000200,00000000,0000.01,0000.50,0000.28,0000.05,0000.12,0000.15,-000.14,0000.15,0000.31,17.8,24.1,10.0,06.9,0679.8,30.9
2021-05-27T03:22:00Z,00000200,00000000,0000.04,0000.13,0000.00,-000.33,-000.01,0000.01,-000.07,-000.46,-000.10,17.8,24.1,10.0,06.9,0679.9,30.9
2021-05-27T03:23:00Z,00000200,00000000,-000.03,0000.30,0000.05,-000.15,0000.12,-000.08,0000.48,0000.50,-000.02,17.8,24.1,10.0,06.8,0679.9,30.9
2021-05-27T03:24:00Z,00000200,00000000,-000.12,0000.32,0000.38,0000.18,-000.09,0000.09,-000.48,-000.32,-000.11,17.8,24.0,10.0,06.8,0679.9,30.9
2021-05-27T03:25:00Z,00000200,00000000,0000.31,0000.27,0000.21,-000.75,0000.05,0000.17,0000.11,-000.23,0000.06,17.8,24.1,10.0,06.8,0679.9,30.9
2021-05-27T03:26:00Z,00000200,00000000,0000.07,0000.32,0000.19,0000.07,0000.22,0000.12,0000.04,0000.28,0000.01,17.8,24.1,10.0,06.8,0679.9,30.9
2021-05-27T03:27:00Z,00000200,00000000,0000.41,0000.54,0000.30,-000.09,0000.28,0000.04,0000.10,-000.23,-000.13,17.8,24.0,09.9,06.7,0679.9,30.9
2021-05-27T03:28:00Z,00000200,00000000,0000.31,0000.32,0000.28,-000.22,-000.02,-000.14,-000.52,0000.13,-000.10,17.8,24.0,09.9,06.7,0679.9,30.9
2021-05-27T03:29:00Z,00000200,00000000,0000.77,0000.41,0000.48,0000.05,-000.07,0000.12,-000.10,-000.35,-000.31,17.8,24.0,09.8,06.7,0679.9,30.9
2021-05-27T03:30:00Z,00000200,00000000,0000.40,0000.30,-000.08,-000.32,0000.04,0000.08,-000.02,-000.01,0000.27,17.8,24.0,09.7,06.6,0679.9,30.9
2021-05-27T03:31:00Z,00000200,00000000,0000.61,0000.27,0000.06,0000.13,0000.09,0000.02,-000.07,-000.05,-000.24,17.8,24.0,09.7,06.6,0679.9,30.9
2021-05-27T03:32:00Z,00000200,00000000,0000.23,0000.35,0000.21,-000.06,0000.02,0000.07,0000.28,0000.26,0000.26,17.8,24.0,09.6,06.5,0679.9,30.9
2021-05-27T03:33:00Z,00000200,00000000,-000.14,0000.17,0000.30,-000.04,0000.19,-000.04,-000.01,-000.16,-000.09,17.8,24.0,09.6,06.5,0679.9,30.9
2021-05-27T03:34:00Z,00000200,00000000,-000.19,0000.30,0000.29,0000.17,0000.37,0000.04,-000.10,0000.19,0000.36,17.8,24.0,09.6,06.6,0679.9,30.9
2021-05-27T03:35:00Z,00000200,00000000,0000.61,0000.31,0000.17,-000.09,0000.15,-000.14,0000.61,0000.31,-000.08,17.8,24.0,09.7,06.6,0679.9,30.9
2021-05-27T03:36:00Z,00000200,00000000,-000.31,0000.24,0000.32,-000.40,0000.01,-000.04,-000.15,0000.11,-000.04,17.7,24.0,09.7,06.6,0679.9,30.9
2021-05-27T03:37:00Z,00000200,00000000,-000.06,0000.24,0000.43,-000.56,0000.17,0000.23,-000.13,-000.49,0000.16,17.7,24.0,09.7,06.6,0679.9,30.9
2021-05-27T03:38:00Z,00000200,00000000,0000.32,0000.37,0000.28,-000.19,-000.09,0000.09,-000.22,-000.39,-000.34,17.7,24.0,09.6,06.6,0679.9,30.9
2021-05-27T03:39:00Z,00000200,00000000,0000.09,0000.45,0000.23,0000.30,0000.09,-000.01,-000.41,0000.33,-000.27,17.7,24.0,09.6,06.5,0679.9,30.9
2021-05-27T03:40:00Z,00000200,00000000,-000.23,0000.11,0000.21,-000.33,0000.21,-000.20,0000.43,-000.18,0000.05,17.7,24.0,09.5,06.5,0680.0,30.9
2021-05-27T03:41:00Z,00000200,00000000,0000.35,0000.38,0000.47,-000.21,0000.11,0000.14,-000.07,-000.07,-000.15,17.7,24.0,09.5,06.5,0680.0,30.9
2021-05-27T03:42:00Z,00000200,00000000,0000.50,0000.30,0000.26,0000.07,0000.26,0000.11,-000.28,0000.25,0000.22,17.7,24.0,09.5,06.5,0679.9,30.9
2021-05-27T03:43:00Z,00000200,00000000,-000.05,0000.29,0000.10,-000.11,-000.18,-000.12,0000.46,0000.04,0000.16,17.7,24.0,09.6,06.5,0680.0,30.9
2021-05-27T03:44:00Z,00000200,00000000,0000.57,0000.35,0000.26,-000.54,0000.11,0000.25,0000.02,-000.05,0000.03,17.7,24.0,09.6,06.5,0680.0,30.9
2021-05-27T03:45:00Z,00000200,00000000,0000.41,0000.28,0000.31,-000.19,0000.03,0000.24,0000.07,0000.05,0000.45,17.7,24.0,09.6,06.5,0680.0,30.9
2021-05-27T03:46:00Z,00000200,00000000,0000.38,0000.31,0000.11,0000.05,-000.02,0000.04,0000.22,0000.14,-000.03,17.7,24.0,09.7,06.6,0680.0,30.9
2021-05-27T03:47:00Z,00000200,00000000,0000.76,0000.24,0000.28,-000.36,0000.16,0000.44,0000.14,-000.14,0000.06,17.7,23.9,09.7,06.6,0680.0,30.9
2021-05-27T03:48:00Z,00000200,00000000,0000.36,0000.43,-000.09,-000.35,0000.06,-000.15,-000.23,0000.45,-000.58,17.7,24.0,09.6,06.6,0680.0,30.9
2021-05-27T03:49:00Z,00000200,00000000,0000.81,0000.25,0000.01,-000.45,-000.15,0000.04,0000.29,-000.28,0000.41,17.7,23.9,09.6,06.6,0680.0,30.9
2021-05-27T03:50:00Z,00000200,00000000,0000.43,0000.20,-000.06,-000.17,0000.36,-000.21,-000.25,0000.24,-000.16,17.7,23.9,09.7,06.6,0680.0,30.9
2021-05-27T03:51:00Z,00000200,00000000,-000.07,0000.51,-000.02,0000.17,-000.16,-000.22,0000.11,0000.03,0000.31,17.7,23.9,09.8,06.6,0680.0,30.9
2021-05-27T03:52:00Z,00000200,00000000,-000.06,0000.41,0000.32,-000.01,-000.06,0000.11,-000.15,-000.04,-000.10,17.7,23.9,09.8,06.7,0680.0,30.9
2021-05-27T03:53:00Z,00000200,00000000,0000.69,0000.40,0000.23,-000.18,0000.28,0000.09,0000.15,0000.28,0000.21,17.7,23.9,09.8,06.6,0680.0,30.9
2021-05-27T03:54:00Z,00000200,00000000,0000.64,0000.29,0000.08,0000.08,-000.02,0000.16,-000.01,-000.32,0000.17,17.6,23.9,09.7,06.6,0680.0,30.9
2021-05-27T03:55:00Z,00000200,00000000,0000.55,0000.09,-000.04,-000.45,0000.02,0000.02,0000.09,0000.13,-000.30,17.7,23.9,09.6,06.6,0680.1,30.9
2021-05-27T03:56:00Z,00000200,00000000,0000.56,0000.08,0000.24,0000.39,0000.38,-000.10,0000.04,0000.45,0000.26,17.7,23.9,09.6,06.5,0680.0,30.9
2021-05-27T03:57:00Z,00000200,40000000,,,,,,,0000.28,-000.36,0000.24,17.7,24.0,10.0,06.8,0679.9,30.9
2021-05-27T03:58:00Z,00000200,60000000,,,,,,,-000.22,0000.37,-000.27,17.4,24.1,09.9,06.5,0679.0,30.9
2021-05-27T03:59:00Z,00000200,20000000,,,,,,,0000.51,0000.21,0000.36,17.4,24.2,09.9,06.5,0679.0,30.9
